RH
67 72 80 79 85 85 87 90 93 89 81 79 74 70 69 71 72 72 73 74 77 82 85 80 75 75 78 81 83 81 82 77 71 70 69 63 57 56
58 59 63 71 77 79 84 87 93 96 89 86 78 76 79 78 74 74 77 81 83 89 93 90 87 91 86 90 87 86 85 82 72 72 65 61 58 60
59 64 65 67 69 73 74 75 83 89 93 77 80 78 78 78 81 77 77 81 86 91 91 92 95 97 96 89 95 87 88 84 74 69 64 61 62 58
59 61 61 62 64 66 69 71 75 82 91 86 80 84 83 80 84 76 82 82 83 93 92 92 93 97 98 96 97 91 89 88 71 68 64 63 56 54
50 52 52 52 54 56 58 61 62 63 74 85 81 86 84 85 92 88 90 91 86 89 98 91 92 99 98 98 97 97 93 78 69 67 65 62 52 42
48 49 47 48 52 53 57 61 65 68 71 73 79 78 85 80 87 92 88 91 95 95 93 98 93 96 96 99 98 94 92 72 70 69 66 58 47 41
50 49 48 46 47 50 56 59 69 73 72 71 71 74 80 91 80 98 96 95 92 95 98 97 97 96 98 98 95 97 80 76 72 69 62 52 45 41
51 44 44 46 48 51 53 58 64 69 75 79 72 73 68 80 95 98 91 98 98 93 97 94 99 95 98 99 97 86 80 75 73 67 56 45 41 34
48 46 45 48 45 48 48 48 50 54 69 74 73 73 75 76 94 99 88 90 95 95 98 97 99 98 98 98 91 88 81 75 70 59 48 40 30 26
44 45 43 40 42 47 53 49 48 49 53 60 67 69 81 85 87 92 91 98 98 97 98 98 99 99 98 97 95 80 77 70 59 51 43 29 23 23
43 48 43 40 43 48 56 55 48 44 51 56 60 62 73 89 97 97 95 98 98 98 98 99 99 98 97 95 83 80 69 60 53 49 35 23 21 25
40 42 42 44 44 49 60 59 54 50 54 54 57 62 75 91 96 99 97 99 99 99 99 98 99 97 96 94 82 70 57 49 44 35 25 25 26 28
36 37 43 46 49 56 65 66 64 63 59 62 62 79 90 91 95 96 99 99 99 98 99 98 98 98 89 80 72 58 48 42 32 22 18 20 25 29
37 37 41 47 57 64 64 68 72 74 71 69 68 82 95 96 94 97 98 99 98 98 98 98 97 95 87 72 60 49 44 32 23 19 20 23 28 32
38 32 38 54 62 64 67 72 80 82 77 75 79 90 95 98 98 98 98 98 98 98 98 98 98 86 72 60 48 42 33 24 20 23 27 31 34 36
31 28 43 58 68 68 71 78 80 80 80 84 88 93 98 98 98 98 98 98 98 98 98 98 85 73 57 50 44 31 23 22 25 29 32 35 38 41
34 37 44 58 71 73 79 84 81 84 86 90 93 96 98 98 98 98 98 98 98 98 97 84 71 56 50 45 30 23 24 27 31 32 36 39 44 48
36 38 47 67 73 72 83 86 89 89 89 92 95 97 98 98 97 97 98 98 97 97 84 66 56 50 42 28 25 24 28 31 33 36 41 44 48 54
36 38 51 67 72 75 87 92 95 95 95 96 97 97 97 97 97 97 97 97 96 84 64 57 48 37 26 26 26 29 29 30 36 42 50 56 63 69
37 37 53 65 71 75 92 97 97 97 97 97 97 97 97 97 97 97 97 97 82 63 54 44 34 27 27 27 28 29 33 39 49 62 75 81 82 87
35 35 52 63 71 77 97 97 97 97 97 97 97 97 97 97 97 97 97 74 62 51 39 32 28 25 26 27 31 38 52 65 77 82 83 82 83 87
35 36 51 62 70 84 97 97 97 96 97 97 97 97 97 97 97 95 68 58 47 36 29 28 23 25 29 36 51 69 84 87 81 71 64 63 63 73
36 36 53 60 69 87 97 97 97 97 97 97 97 97 97 96 93 64 53 43 33 30 24 23 25 33 50 67 79 82 80 66 55 57 63 67 71 80